Location: Apeadero de Los Molinos-Guadarrama
(40.7091°N, 4.0689°W)
Time: 12:02:59
(UTC+00:00)

Cosmos 1656 Rocket - Pass Details

Date: 14 May 2021
Orbit: 794 x 848 km, 71.1° (Epoch: 18 June)

Event Time Altitude Azimuth Distance (km) Brightness Sun altitude
Exits shadow 23:13:01 57° 52° (NE) 948 3.9 -28.8°
Drops below altitude 10° 23:17:31 10° 27° (NNE) 2,415 6.6 -29.1°
Sets 23:19:58 0° 26° (NNE) 3,359 7.5 -29.2°
